• în România
  • Lista ţărilor
  • Pe 7 zile
  • Temperatura apei
  • Hartă satelitară
  • Meteo pe hartă
  • Widget-uri
  • user-avatar
    Intrare

    Meteo pe oră la Shaki

    Astăzi, 21 Iulie, Sâmbătă

    Timp Temperatura Precipitaţii Vânt Presiune Umiditate
    00:00 +28°C° 0,2 mm 3 m/s 729 mmHg 46%
    01:00 +27°C° 0,1 mm 2 m/s 729 mmHg 47%
    02:00 +27°C° 0,1 mm 2 m/s 729 mmHg 47%
    03:00 +27°C° 0,1 mm 1 m/s 729 mmHg 48%
    04:00 +27°C° 0,1 mm 1 m/s 729 mmHg 47%
    05:00 +28°C° 0,1 mm 2 m/s 729 mmHg 47%
    06:00 +28°C° 0,1 mm 2 m/s 729 mmHg 46%
    07:00 +30°C° 0 mm 2 m/s 730 mmHg 43%
    08:00 +31°C° 0 mm 2 m/s 730 mmHg 40%
    09:00 +33°C° 0 mm 3 m/s 730 mmHg 37%
    10:00 +34°C° 0 mm 2 m/s 730 mmHg 35%
    11:00 +35°C° 0 mm 2 m/s 729 mmHg 34%
    12:00 +36°C° 0 mm 2 m/s 729 mmHg 32%
    13:00 +37°C° 0 mm 2 m/s 729 mmHg 32%
    14:00 +37°C° 0 mm 2 m/s 729 mmHg 32%
    15:00 +37°C° 0 mm 2 m/s 729 mmHg 32%
    16:00 +37°C° 0 mm 2 m/s 729 mmHg 33%
    17:00 +35°C° 0 mm 1 m/s 729 mmHg 34%
    18:00 +35°C° 0 mm 1 m/s 729 mmHg 35%
    19:00 +33°C° 0,5 mm 1 m/s 729 mmHg 38%
    20:00 +31°C° 0,5 mm 2 m/s 730 mmHg 41%
    21:00 +29°C° 0,5 mm 2 m/s 730 mmHg 44%
    22:00 +28°C° 0,1 mm 2 m/s 730 mmHg 46%
    23:00 +28°C° 0,1 mm 2 m/s 730 mmHg 48%

    Mâine, 22 Iulie, Duminică

    Timp Temperatura Precipitaţii Vânt Presiune Umiditate
    00:00 +27°C° 0,1 mm 2 m/s 731 mmHg 49%
    01:00 +27°C° 0 mm 2 m/s 731 mmHg 50%
    02:00 +26°C° 0 mm 2 m/s 731 mmHg 52%
    03:00 +26°C° 0 mm 2 m/s 730 mmHg 53%
    04:00 +27°C° 0 mm 2 m/s 731 mmHg 52%
    05:00 +27°C° 0 mm 1 m/s 731 mmHg 51%
    06:00 +28°C° 0 mm 1 m/s 731 mmHg 50%
    07:00 +29°C° 0 mm 2 m/s 731 mmHg 47%
    08:00 +30°C° 0 mm 2 m/s 731 mmHg 44%
    09:00 +32°C° 0 mm 2 m/s 731 mmHg 40%
    10:00 +32°C° 0,3 mm 2 m/s 731 mmHg 40%
    11:00 +34°C° 0,3 mm 2 m/s 730 mmHg 39%
    12:00 +35°C° 0,3 mm 2 m/s 730 mmHg 39%
    13:00 +35°C° 0,2 mm 2 m/s 730 mmHg 37%
    14:00 +36°C° 0,2 mm 2 m/s 729 mmHg 36%
    15:00 +36°C° 0,2 mm 2 m/s 729 mmHg 34%
    16:00 +36°C° 0,1 mm 3 m/s 729 mmHg 34%
    17:00 +36°C° 0,1 mm 3 m/s 729 mmHg 35%
    18:00 +35°C° 0,1 mm 3 m/s 728 mmHg 35%
    19:00 +34°C° 0,1 mm 3 m/s 729 mmHg 38%
    20:00 +31°C° 0,1 mm 3 m/s 729 mmHg 41%
    21:00 +29°C° 0,1 mm 3 m/s 730 mmHg 44%
    22:00 +29°C° 0 mm 3 m/s 730 mmHg 45%
    23:00 +28°C° 0 mm 2 m/s 730 mmHg 46%

    Poimâine, 23 Iulie, Luni

    Timp Temperatura Precipitaţii Vânt Presiune Umiditate
    00:00 +28°C° 0 mm 2 m/s 730 mmHg 48%
    01:00 +27°C° 0,1 mm 2 m/s 730 mmHg 49%
    02:00 +27°C° 0,1 mm 2 m/s 729 mmHg 51%
    03:00 +26°C° 0,1 mm 1 m/s 729 mmHg 52%
    04:00 +27°C° 0 mm 1 m/s 729 mmHg 51%
    05:00 +27°C° 0 mm 1 m/s 729 mmHg 51%
    06:00 +28°C° 0 mm 1 m/s 730 mmHg 50%
    07:00 +29°C° 0 mm 2 m/s 729 mmHg 46%
    08:00 +31°C° 0 mm 2 m/s 729 mmHg 42%
    09:00 +32°C° 0 mm 2 m/s 729 mmHg 38%
    10:00 +34°C° 0,1 mm 2 m/s 729 mmHg 36%
    11:00 +35°C° 0,1 mm 2 m/s 729 mmHg 34%
    12:00 +36°C° 0,1 mm 2 m/s 728 mmHg 32%
    13:00 +36°C° 0,1 mm 2 m/s 728 mmHg 32%
    14:00 +37°C° 0,1 mm 2 m/s 727 mmHg 31%
    15:00 +37°C° 0,1 mm 2 m/s 727 mmHg 30%
    16:00 +37°C° 0 mm 2 m/s 727 mmHg 30%
    17:00 +36°C° 0 mm 2 m/s 727 mmHg 30%
    18:00 +36°C° 0 mm 2 m/s 727 mmHg 31%
    19:00 +34°C° 0,2 mm 2 m/s 728 mmHg 33%
    20:00 +31°C° 0,2 mm 2 m/s 728 mmHg 34%
    21:00 +29°C° 0,2 mm 2 m/s 729 mmHg 36%
    22:00 +29°C° 0,2 mm 2 m/s 729 mmHg 39%
    23:00 +28°C° 0,2 mm 2 m/s 729 mmHg 41%

    24 Iulie, Marţi

    Timp Temperatura Precipitaţii Vânt Presiune Umiditate
    00:00 +28°C° 0,2 mm 2 m/s 729 mmHg 44%
    01:00 +27°C° 0,1 mm 2 m/s 729 mmHg 46%
    02:00 +27°C° 0,1 mm 2 m/s 729 mmHg 49%
    03:00 +26°C° 0,1 mm 2 m/s 729 mmHg 52%
    04:00 +27°C° 0 mm 2 m/s 729 mmHg 51%
    05:00 +27°C° 0 mm 2 m/s 729 mmHg 50%
    06:00 +28°C° 0 mm 3 m/s 729 mmHg 49%
    07:00 +30°C° 0 mm 3 m/s 729 mmHg 43%
    08:00 +31°C° 0 mm 3 m/s 729 mmHg 37%
    09:00 +34°C° 0 mm 3 m/s 729 mmHg 31%
    10:00 +35°C° 0 mm 3 m/s 729 mmHg 29%
    11:00 +36°C° 0 mm 2 m/s 729 mmHg 28%
    12:00 +37°C° 0 mm 2 m/s 729 mmHg 26%
    13:00 +38°C° 0 mm 2 m/s 729 mmHg 25%
    14:00 +38°C° 0 mm 2 m/s 729 mmHg 25%
    15:00 +37°C° 0 mm 1 m/s 728 mmHg 24%
    16:00 +37°C° 0 mm 1 m/s 729 mmHg 25%
    17:00 +36°C° 0 mm 1 m/s 729 mmHg 27%
    18:00 +37°C° 0 mm 2 m/s 729 mmHg 28%
    19:00 +35°C° 0 mm 2 m/s 730 mmHg 29%
    20:00 +33°C° 0 mm 3 m/s 730 mmHg 30%
    21:00 +30°C° 0 mm 3 m/s 731 mmHg 32%
    22:00 +30°C° 0 mm 3 m/s 731 mmHg 34%
    23:00 +29°C° 0 mm 3 m/s 731 mmHg 36%

    25 Iulie, Miercuri

    Timp Temperatura Precipitaţii Vânt Presiune Umiditate
    00:00 +28°C° 0 mm 2 m/s 731 mmHg 38%
    01:00 +28°C° 0 mm 2 m/s 731 mmHg 38%
    02:00 +28°C° 0 mm 2 m/s 731 mmHg 39%
    03:00 +28°C° 0 mm 2 m/s 731 mmHg 39%
    04:00 +28°C° 0 mm 1 m/s 731 mmHg 39%
    05:00 +29°C° 0 mm 1 m/s 731 mmHg 40%
    06:00 +29°C° 0 mm 1 m/s 731 mmHg 40%
    07:00 +31°C° 0 mm 1 m/s 731 mmHg 37%
    08:00 +34°C° 0 mm 2 m/s 731 mmHg 33%
    09:00 +35°C° 0 mm 2 m/s 731 mmHg 30%
    10:00 +37°C° 0 mm 2 m/s 731 mmHg 29%
    11:00 +38°C° 0 mm 2 m/s 730 mmHg 28%
    12:00 +39°C° 0 mm 2 m/s 730 mmHg 26%
    13:00 +39°C° 0 mm 2 m/s 730 mmHg 26%
    14:00 +40°C° 0 mm 2 m/s 729 mmHg 25%
    15:00 +40°C° 0 mm 3 m/s 729 mmHg 25%
    16:00 +40°C° 0 mm 3 m/s 729 mmHg 26%
    17:00 +39°C° 0 mm 3 m/s 729 mmHg 28%
    18:00 +39°C° 0 mm 3 m/s 729 mmHg 29%
    19:00 +37°C° 0 mm 3 m/s 730 mmHg 31%
    20:00 +35°C° 0 mm 3 m/s 730 mmHg 34%
    21:00 +33°C° 0 mm 3 m/s 730 mmHg 36%
    22:00 +31°C° 0 mm 3 m/s 730 mmHg 37%
    23:00 +31°C° 0 mm 3 m/s 730 mmHg 38%

    26 Iulie, Joi

    Timp Temperatura Precipitaţii Vânt Presiune Umiditate
    00:00 +30°C° 0 mm 3 m/s 730 mmHg 39%
    01:00 +30°C° 0 mm 3 m/s 730 mmHg 39%
    02:00 +29°C° 0 mm 2 m/s 730 mmHg 39%
    03:00 +29°C° 0 mm 2 m/s 730 mmHg 40%
    04:00 +29°C° 0 mm 2 m/s 730 mmHg 39%
    05:00 +30°C° 0 mm 1 m/s 730 mmHg 38%
    06:00 +31°C° 0 mm 1 m/s 730 mmHg 38%
    07:00 +32°C° 0 mm 1 m/s 730 mmHg 35%
    08:00 +34°C° 0 mm 1 m/s 730 mmHg 32%
    09:00 +37°C° 0 mm 2 m/s 730 mmHg 29%
    10:00 +38°C° 0 mm 2 m/s 730 mmHg 27%
    11:00 +39°C° 0 mm 3 m/s 729 mmHg 26%
    12:00 +40°C° 0 mm 3 m/s 729 mmHg 24%
    13:00 +40°C° 0 mm 3 m/s 729 mmHg 24%
    14:00 +42°C° 0 mm 3 m/s 729 mmHg 23%
    15:00 +42°C° 0 mm 3 m/s 728 mmHg 23%
    16:00 +40°C° 0 mm 3 m/s 728 mmHg 24%
    17:00 +40°C° 0 mm 3 m/s 728 mmHg 26%
    18:00 +40°C° 0 mm 3 m/s 728 mmHg 27%
    19:00 +38°C° 0 mm 3 m/s 729 mmHg 29%
    20:00 +36°C° 0 mm 3 m/s 729 mmHg 31%
    21:00 +34°C° 0 mm 3 m/s 729 mmHg 33%
    22:00 +34°C° 0 mm 3 m/s 729 mmHg 34%
    23:00 +32°C° 0 mm 2 m/s 729 mmHg 35%
    Arată mai mult